Location: Nelson
(41.2830°S, 173.2830°E)
Time: 13:02:27
(UTC+13:00)

ISS - Visible Passes

Search period start: 24 January 2019 00:00
Search period end: 03 February 2019 00:00
Orbit: 404 x 410 km, 51.6° (Epoch: 24 January)

Date Brightness Start Highest point End Pass type
(mag) Time Alt. Az. Time Alt. Az. Time Alt. Az.
28 Jan -1.9 05:33:41 10° N 05:36:26 24° NE 05:39:13 10° ESE visible
29 Jan -1.3 04:44:01 11° NNE 04:45:14 13° NE 04:46:55 10° E visible
30 Jan -3.5 05:27:29 16° NW 05:29:58 61° NE 05:33:18 10° ESE visible
31 Jan -2.7 04:38:10 30° NNE 04:38:38 32° NE 04:41:40 10° ESE visible
01 Feb -1.1 03:48:46 14° ENE 03:48:46 14° ENE 03:49:41 10° E visible
01 Feb -3.4 05:21:29 20° WNW 05:23:37 55° SSW 05:26:56 10° SE visible
02 Feb -3.9 04:32:01 79° N 04:32:08 82° NNE 04:35:31 10° SE visible
